Weather History for Cecil Field, FL

Change the Weather History Date:

Monday, June 23, 2014

  Actual Average (KJAX) Record (KJAX)
Temperature  
Mean Temperature 76 °F 81 °F  
Max Temperature 84 °F 91 °F 99 °F (1981)
Min Temperature 68 °F 71 °F 63 °F (1879)
Degree Days  
Heating Degree Days 0 0  
Month to date heating degree days 0  
Since 1 June heating degree days 0  
Since 1 July heating degree days 1349  
Cooling Degree Days 11 16  
Month to date cooling degree days 335  
Year to date cooling degree days 819  
Since 1 June cooling degree days 335  
Growing Degree Days 26 (Base 50)    
Moisture  
Dew Point 70 °F    
Average Humidity 91    
Maximum Humidity 100    
Minimum Humidity 70    
Precipitation  
Precipitation 0.00 in 0.23 in 2.27 in (1875)
Month to date precipitation 4.81  
Year to date precipitation 20.37  
Snow  
Snow 0.00 in 0.00 in 0.00 in (2002)
Month to date snowfall 0.0  
Since 1 June snowfall 0.0  
Since 1 July snowfall T  
Snow Depth -    
Sea Level Pressure  
Sea Level Pressure 30.01 in    
Wind  
Wind Speed 2 mph (WSW)    
Max Wind Speed 6 mph    
Max Gust Speed -    
Visibility 9 miles    
Events      
T = Trace of Precipitation, MM = Missing Value Source: NWS Daily Summary

Daily Weather History Graph

Daily Weather History Graph

Search for Another Location

Airport:

Trip Planner

Search our weather history database for the weather conditions in past years. The results will help you decide how hot, cold, wet, or windy it might be!

Date:

Astronomy

Jun. 23, 2014 Rise Set
Actual Time 6:26 AM EDT 8:32 PM EDT
Civil Twilight 5:59 AM EDT 9:00 PM EDT
Nautical Twilight 5:25 AM EDT 9:33 PM EDT
Astronomical Twilight 4:49 AM EDT 10:09 PM EDT
Moon 3:40 AM EDT (6/23) 5:21 PM EDT (6/23)
Length of Visible Light 15h 00m
Length of Day
14h 05m
Waning Crescent, 13% of the Moon is Illuminated
Jun 23
Waning Crescent
Jun 27
New
Jul 5
First Quarter
Jul 12
Full
Jul 18
Last Quarter

Hourly Weather History & Observations

Time (EDT) Temp. Heat Index Dew Point Humidity Pressure Visibility Wind Dir Wind Speed Gust Speed Precip Events Conditions
12:15 AM 71.6 °F - 68.0 °F 88% 29.96 in 10.0 mi SW 4.6 mph - N/A   Clear
12:55 AM 69.8 °F - 68.0 °F 94% 29.96 in 8.0 mi Calm Calm - N/A   Clear
1:15 AM 69.8 °F - 68.0 °F 94% 29.96 in 9.0 mi SW 3.5 mph - N/A   Clear
1:35 AM 69.8 °F - 68.0 °F 94% 29.96 in 10.0 mi SW 4.6 mph - N/A   Clear
1:55 AM 69.8 °F - 68.0 °F 94% 29.96 in 10.0 mi SW 5.8 mph - N/A   Clear
2:15 AM 69.8 °F - 68.0 °F 94% 29.96 in 10.0 mi SSW 5.8 mph - N/A   Clear
2:35 AM 69.8 °F - 68.0 °F 94% 29.96 in 10.0 mi Calm Calm - N/A   Clear
2:55 AM 69.8 °F - 68.0 °F 94% 29.95 in 10.0 mi Calm Calm - N/A   Clear
3:15 AM 69.8 °F - 68.0 °F 94% 29.96 in 9.0 mi Calm Calm - N/A   Scattered Clouds
3:35 AM 69.8 °F - 68.0 °F 94% 29.96 in 9.0 mi Calm Calm - N/A   Scattered Clouds
3:55 AM 68.0 °F - 68.0 °F 100% 29.96 in 6.0 mi Calm Calm - N/A   Partly Cloudy
4:15 AM 69.8 °F - 68.0 °F 94% 29.95 in 9.0 mi Calm Calm - N/A   Clear
4:35 AM 69.8 °F - 68.0 °F 94% 29.96 in 8.0 mi Calm Calm - N/A   Partly Cloudy
4:55 AM 69.8 °F - 68.0 °F 94% 29.96 in 7.0 mi Calm Calm - N/A   Clear
5:15 AM 68.0 °F - 68.0 °F 100% 29.96 in 5.0 mi Calm Calm - N/A   Clear
5:35 AM 68.0 °F - 68.0 °F 100% 29.96 in 4.0 mi Calm Calm - N/A   Clear
5:55 AM 68.0 °F - 68.0 °F 100% 29.96 in 2.5 mi Calm Calm - N/A   Clear
6:15 AM 68.0 °F - 68.0 °F 100% 29.97 in 3.0 mi Calm Calm - N/A   Clear
6:35 AM 68.0 °F - 68.0 °F 100% 29.97 in 4.0 mi Calm Calm - N/A   Clear
6:50 AM 68.0 °F - 68.0 °F 100% 29.98 in 7.0 mi Calm Calm - N/A   Clear
7:50 AM 71.6 °F - 71.6 °F 100% 30.00 in 7.0 mi Calm Calm - N/A   Clear
8:50 AM 75.2 °F - 73.4 °F 94% 30.02 in 7.0 mi Calm Calm - N/A   Clear
9:50 AM 80.6 °F 85.4 °F 73.4 °F 79% 30.04 in 10.0 mi West 3.5 mph - N/A   Clear
10:50 AM 82.4 °F 89.5 °F 75.2 °F 79% 30.05 in 10.0 mi West 3.5 mph - N/A   Partly Cloudy
11:50 AM 82.4 °F 89.5 °F 75.2 °F 79% 30.06 in 10.0 mi WSW 3.5 mph - N/A   Partly Cloudy
12:50 PM 84.2 °F 92.3 °F 75.2 °F 74% 30.05 in 10.0 mi WNW 4.6 mph - N/A   Clear
2:50 PM 84.2 °F 90.9 °F 73.4 °F 70% 30.03 in 10.0 mi WSW 5.8 mph - N/A   Mostly Cloudy
3:50 PM 80.6 °F 84.6 °F 71.6 °F 74% 30.03 in 10.0 mi WSW 5.8 mph - N/A   Mostly Cloudy
5:50 PM 77.0 °F - 69.8 °F 78% 30.03 in 10.0 mi NNW 5.8 mph - N/A   Clear
6:50 PM 77.0 °F - 71.6 °F 83% 30.02 in 10.0 mi Calm Calm - N/A   Clear
8:15 PM 77.0 °F - 71.6 °F 83% 30.05 in 10.0 mi Calm Calm - N/A   Clear
8:35 PM 77.0 °F - 73.4 °F 89% 30.05 in 10.0 mi Calm Calm - N/A   Clear
8:55 PM 77.0 °F - 73.4 °F 89% 30.05 in 10.0 mi SE 3.5 mph - N/A   Clear
9:15 PM 75.2 °F - 73.4 °F 94% 30.05 in 10.0 mi Calm Calm - N/A   Clear
9:35 PM 75.2 °F - 73.4 °F 94% 30.05 in 10.0 mi Calm Calm - N/A   Clear
9:55 PM 75.2 °F - 73.4 °F 94% 30.06 in 10.0 mi Calm Calm - N/A   Clear
10:15 PM 73.4 °F - 73.4 °F 100% 30.07 in 10.0 mi Calm Calm - N/A   Clear
10:35 PM 73.4 °F - 71.6 °F 94% 30.08 in 10.0 mi Calm Calm - N/A   Clear
10:55 PM 73.4 °F - 71.6 °F 94% 30.09 in 8.0 mi Calm Calm - N/A   Clear
11:15 PM 73.4 °F - 71.6 °F 94% 30.09 in 10.0 mi Calm Calm - N/A   Clear
11:35 PM 73.4 °F - 71.6 °F 94% 30.09 in 10.0 mi Calm Calm - N/A   Clear
11:55 PM 73.4 °F - 71.6 °F 94% 30.09 in 10.0 mi Calm Calm - N/A   Clear